Location: Peurunkaj�rvi
(62.4500°N, 25.8667°E)
Time: 22:29:09
(UTC+00:00)

Daily predictions for brighter satellites

Satellite Brightness Start Highest point End
(mag) Time Altitude Azimuth Time Altitude Azimuth Time Altitude Azimuth
IRS-1C Rocket 4.2 16:42:11 10° SSE 16:47:28 89° WSW 16:52:47 10° NNW
Cosmos 968 Rocket 3.6 16:42:43 10° SSW 16:47:51 57° ESE 16:53:03 10° NE
Cosmos 2184 Rocket 4.2 16:42:25 10° SSE 16:48:27 49° E 16:54:27 10° NNE
SJ-6B 3.4 16:45:08 10° SE 16:49:01 42° ENE 16:52:52 10° N
Cosmos 1743 3.4 16:46:10 10° SSW 16:50:01 61° WNW 16:53:54 10° N
COSMO-SKYMED 1 2.6 16:46:53 10° NNE 16:51:16 75° ESE 16:55:37 10° SSW
Cosmos 1707 3.1 16:48:03 10° NNW 16:51:59 70° WSW 16:55:52 10° S
ASTRO F (AKARI) 4.4 16:49:57 10° SSE 16:53:18 64° ENE 16:56:32 10° NNW
Cosmos 2219 4.1 16:48:13 10° NW 16:53:33 39° NNE 16:58:50 10° E
SJ 16-02 3.0 16:51:29 10° SE 16:53:47 14° E 16:56:05 10° ENE
Lacrosse 4 Rocket 1.3 16:53:49 10° SW 16:57:52 76° SE 17:01:59 10° NE
OPS 6432 4.4 16:54:23 10° SW 16:57:59 59° SSE 17:00:58 10° ENE
Cosmos 1900 4.4 16:53:24 10° WNW 16:58:20 82° NNE 17:03:17 10° ESE
Meteor 2-5 Rocket 4.1 16:54:00 10° NNW 16:59:21 46° ENE 17:04:42 10° SE
Cosmos 158 Rocket 3.9 16:56:00 10° NW 17:01:10 79° NE 17:06:10 10° SE
HJ-1C 3.9 16:58:36 10° S 17:01:51 63° WSW 17:05:08 10° NNW
Cosmos 1626 2.2 16:58:11 10° N 17:01:53 59° ENE 17:05:33 10° SSE
KORONAS-FOTON 3.8 17:00:21 10° NNW 17:04:09 88° ENE 17:07:56 10° SSE
Helios 1A Rocket 3.4 17:03:43 10° SE 17:07:36 43° ENE 17:11:28 10° N
Cosmos 2154 Rocket 4.3 17:01:41 10° SSE 17:07:45 49° E 17:13:49 10° NNE
Cosmos 1340 4.4 17:05:26 10° NNW 17:08:56 36° W 17:12:25 10° SSW
Cosmos 1356 Rocket 3.7 17:06:34 10° SSW 17:10:53 78° WNW 17:15:13 10° NNE
H-2A R/B 2.2 17:07:53 10° NNE 17:12:04 50° ESE 17:16:08 10° S
Nadezhda 3 Rocket 4.0 17:06:04 10° NNW 17:12:17 89° ENE 17:18:28 10° SSE
Cosmos 1503 Rocket 4.3 17:08:06 10° S 17:12:59 42° ESE 17:17:52 10° NE
MetOp-A 4.3 17:07:49 10° SSE 17:13:12 85° WSW 17:18:38 10° NNW
IRAS Rocket 4.3 17:08:19 10° NNE 17:14:00 74° ESE 17:19:39 10° SSW
Cosmos 1733 Rocket 3.2 17:10:12 10° SSW 17:14:32 82° WNW 17:18:55 10° NNE
Meteor 2-9 Rocket 4.4 17:08:40 10° SSW 17:14:34 89° ESE 17:20:26 10° NNE
Cosmos 1184 Rocket 2.6 17:12:03 10° NNW 17:15:18 78° ENE 17:18:31 10° SSE
OBJECT-B 0.7 17:12:19 10° SSE 17:15:29 68° ENE 17:18:40 10° NNW
SPOT 3 Rocket 4.3 17:11:01 10° ESE 17:15:40 35° NE 17:20:20 10° NNW
USA 305 4.3 17:12:55 10° WSW 17:16:27 26° S 17:20:00 10° SE
COSMOS 2487 3.4 17:13:24 10° NNW 17:16:28 30° NE 17:19:06 12° ESE
Cosmos 2344 3.8 17:09:18 10° WSW 17:16:48 87° SSE 17:26:00 10° ENE
Cosmos 1726 4.1 17:17:41 11° E 17:18:18 11° E 17:19:30 10° ENE
SPOT 5 4.5 17:15:47 10° E 17:19:54 24° NE 17:23:58 10° N
Cosmos 1766 4.5 17:17:13 10° SE 17:20:14 22° E 17:23:16 10° NE
Cosmos 1844 Rocket 3.8 17:15:58 10° W 17:21:20 43° NNW 17:26:43 10° NE
Cosmos 1733 4.1 17:18:58 10° SSE 17:22:13 27° E 17:25:30 10° NNE
Cosmos 1782 Rocket 4.0 17:19:43 10° SSE 17:23:52 40° E 17:28:00 10° NNE
Cosmos 1536 Rocket 4.1 17:19:46 10° N 17:24:00 40° ENE 17:28:07 10° SE
Cosmos 923 Rocket 4.0 17:20:12 10° NW 17:25:27 73° NE 17:30:40 10° SE
Cosmos 1346 Rocket 3.1 17:21:32 10° NNW 17:25:33 74° WSW 17:29:35 10° S
Cosmos 1689 Rocket 4.1 17:25:36 10° ENE 17:26:20 12° ENE 17:26:20 12° ENE
CSL-04 Rocket 4.0 17:22:08 10° SSE 17:27:32 73° WSW 17:33:04 10° NNW
Cosmos 1354 Rocket 4.2 17:24:31 10° S 17:29:32 47° ESE 17:34:34 10° NE
ISS -1.5 17:29:17 10° SSW 17:30:59 13° S 17:32:32 10° SE
USA 307 4.3 17:27:32 10° WSW 17:31:05 26° S 17:34:12 12° SE
Cosmos 1025 Rocket 3.0 17:26:49 10° NNW 17:31:12 70° ENE 17:35:31 10° SSE
Terra 3.5 17:28:44 11° E 17:31:56 20° NE 17:35:22 10° N
Cosmos 1486 Rocket 4.0 17:29:29 10° SSW 17:34:47 78° ESE 17:40:08 10° NE
USA 281 4.5 17:30:57 10° NE 17:35:06 17° E 17:38:14 13° ESE
Spot 2 Rocket 4.5 17:33:47 14° ESE 17:37:25 31° NE 17:41:50 10° N
Genesis I 3.4 17:34:05 10° WSW 17:38:07 77° NNW 17:42:13 10° ENE
Cosmos 1680 Rocket 3.5 17:33:34 10° NW 17:38:51 73° NE 17:43:38 13° SE
Cosmos 2297 Rocket 2.6 17:36:51 10° NW 17:42:26 52° NNE 17:46:54 16° ESE
Cosmos 1975 Rocket 3.4 17:38:26 10° NNW 17:42:51 71° W 17:47:17 10° S
USA 306 4.4 17:40:44 10° WSW 17:44:12 25° S 17:46:56 14° SE
Okean-O 3.9 17:40:05 10° S 17:44:20 43° W 17:48:36 10° NNW
Cosmos 1238 Rocket 3.6 17:38:46 10° S 17:44:49 83° ESE 17:49:56 10° NNE
Cosmos 2074 Rocket 4.1 17:40:14 10° SSW 17:46:32 86° WNW 17:52:53 10° NNE
SeaSat 1 3.3 17:44:08 10° SSE 17:48:55 48° WSW 17:53:43 10° NW
USA 308 4.4 17:46:47 10° WSW 17:50:16 25° S 17:52:48 15° SE
Meteor 1-24 Rocket 3.6 17:45:05 10° NNW 17:50:26 72° ENE 17:55:51 10° SSE
ATLAS CENTAUR R/B 4.4 17:48:07 10° W 17:50:35 14° WSW 17:53:06 10° SSW
SPOT 1/Viking Rocket 3.9 17:47:31 15° SE 17:51:33 48° ENE 17:56:31 10° NNW
Landsat 7 3.9 17:48:09 13° SE 17:52:20 59° ENE 17:57:03 10° NNW
DNEPR-1 R/B 3.5 17:49:46 10° WNW 17:54:02 80° NNE 17:57:05 20° ESE
Cosmos 2112 Rocket 4.0 17:52:01 10° NW 17:57:18 81° NE 18:01:32 16° SE
Cosmos 2341 Rocket 4.1 17:51:24 10° SSE 17:57:33 55° E 18:03:48 10° NNE
CZ-2C R/B 3.4 17:53:26 10° NNE 17:58:49 60° WNW 18:04:18 10° SW
Cosmos 1441 Rocket 3.1 17:55:12 10° NNW 17:59:03 87° WSW 18:02:32 12° SSE
Lacrosse 5 rocket 4.3 17:58:18 10° WSW 17:59:04 10° SW 17:59:51 10° SW
Cosmos 1300 Rocket 3.9 17:54:57 10° SSE 17:59:04 42° E 18:03:12 10° NNE
Cosmos 2366 rocket 4.3 17:53:33 10° SSE 17:59:15 42° E 18:05:00 10° NNE
Cosmos 1943 Rocket 2.1 17:54:03 10° SSW 17:59:35 65° SE 18:05:12 10° NE
Resurs 01 Rocket 1.7 17:56:07 15° SE 17:59:42 64° ENE 18:04:06 10° NNW
CZ-4B R/B 1.0 17:57:05 10° NNE 18:00:09 83° ESE 18:03:14 10° SSW
ERS-1 Rocket 3.9 17:59:17 19° ESE 18:02:13 34° NE 18:06:44 10° N
IGS 5A 3.4 18:00:38 14° SSE 18:04:06 75° ENE 18:08:17 10° NNW
SL-27 R/B 2.7 18:01:13 10° NW 18:04:29 59° WSW 18:06:54 17° SSE
Cosmos 2227 Rocket 2.6 17:59:11 10° NW 18:04:47 54° NNE 18:08:41 20° ESE
DMSP B5D2-2 4.2 18:00:41 10° NNE 18:06:02 86° WNW 18:11:21 10° SSW
ERS-2 4.4 18:04:32 10° ENE 18:05:02 11° ENE 18:05:02 11° ENE
Resurs 1-3 3.7 18:02:47 10° SSE 18:07:11 80° WSW 18:11:37 10° NNW
Cosmos 1356 4.3 18:04:56 10° N 18:08:04 33° ENE 18:09:05 27° E
Cosmos 2218 Rocket 4.2 18:02:59 10° SSE 18:08:51 48° E 18:14:49 10° NNE
Cosmos 2278 Rocket 2.9 18:03:29 10° WSW 18:09:07 58° NNW 18:14:46 10° NE
Cosmos 1908 Rocket 4.0 18:05:41 10° SSW 18:10:09 66° WNW 18:14:37 10° NNE
ARIANE 5 R/B 3.5 18:08:13 22° ESE 18:10:19 33° NE 18:14:20 10° N
Cosmos 2369 Rocket 2.4 18:06:20 10° S 18:11:43 48° ESE 18:17:07 10° NE
USA 186 3.4 18:09:22 10° SSW 18:12:10 33° W 18:15:08 10° NNW
SL-19 R/B 4.2 18:09:24 19° SSE 18:12:19 77° ENE 18:15:58 10° NNW
Cosmos 2082 4.4 18:08:20 10° NW 18:13:49 46° NNE 18:17:40 19° E
ERBS 3.2 18:12:35 10° WSW 18:15:33 31° S 18:16:15 28° SSE
CARTOSAT-1 4.1 18:13:31 25° ESE 18:15:36 42° ENE 18:19:42 10° N
Cosmos 1607 4.2 18:09:38 10° W 18:16:06 71° N 18:21:16 16° E
CZ-4 R/B 4.3 18:14:29 10° SW 18:16:55 16° W 18:19:22 10° NW
SL-14 R/B 4.1 18:13:04 10° NNW 18:16:58 51° W 18:20:48 10° S
Cosmos 1315 Rocket 2.8 18:13:54 10° S 18:17:52 63° ESE 18:21:55 10° NNE
EO 1 Delta rocket 4.3 18:13:01 10° S 18:18:03 81° W 18:24:18 10° NNW
Cosmos 1867 3.6 18:14:20 10° WNW 18:19:51 79° SSW 18:23:12 24° SE
Cosmos 2263 Rocket 3.2 18:15:39 10° NW 18:20:56 38° NNE 18:25:16 14° ENE
Cosmos 2297 3.7 18:15:35 10° SW 18:21:19 84° SE 18:27:06 10° NE
Ariane Rocket 3.1 18:16:25 11° SSE 18:21:24 76° WSW 18:26:32 10° NNW
CENTAUR R/B 3.8 18:22:35 21° ESE 18:22:35 21° ESE 18:26:54 10° ENE
SJ-6B 4.2 18:19:47 10° S 18:23:42 41° W 18:27:35 10° NNW
Cosmos 1400 Rocket 3.7 18:20:06 10° SW 18:24:06 53° WNW 18:28:04 10° NNE
Cosmos 1805 3.3 18:24:52 10° SSW 18:28:46 82° WNW 18:32:41 10° NNE
Cosmos 962 Rocket 4.4 18:23:18 10° S 18:29:29 85° ESE 18:35:40 10° NNE
MetOp-B 4.1 18:26:11 20° SSE 18:29:59 81° ENE 18:35:23 10° NNW
Timation 1 Rocket 4.4 18:23:55 10° NW 18:29:59 74° NE 18:33:32 26° ESE
SJ 16-02 1.3 18:27:09 10° SSW 18:31:30 59° ESE 18:35:54 10° NE
Meteor 1-15 Rocket 4.1 18:30:38 10° S 18:36:13 78° ESE 18:41:53 10° NNE
Lacrosse 4 Rocket 2.3 18:32:51 10° W 18:36:48 46° NNW 18:40:49 10° ENE
Cosmos 2219 3.3 18:32:49 10° NW 18:38:32 71° NE 18:41:29 29° ESE
Cosmos 1656 Rocket 3.7 18:34:39 10° SSW 18:40:01 52° ESE 18:45:20 10° NE
Cosmos 1953 4.2 18:42:06 17° ENE 18:42:06 17° ENE 18:43:55 10° NE
Cosmos 1470 3.1 18:40:30 39° SE 18:41:17 45° E 18:45:06 10° NNE
Cosmos 1703 3.8 18:37:37 10° N 18:41:27 43° ENE 18:42:18 37° E
Iridium 4 Rocket 3.0 18:37:40 10° N 18:42:08 63° E 18:43:49 34° SSE
Cosmos 1000 Rocket 4.4 18:36:08 10° NNW 18:42:20 71° ENE 18:46:02 25° SSE
Helios 1A Rocket 4.2 18:38:57 10° S 18:42:49 39° W 18:46:41 10° NNW
Meteor 2-5 Rocket 4.4 18:37:33 10° NNW 18:42:55 53° W 18:48:19 10° S
Cosmos 2263 4.2 18:37:42 10° SSW 18:43:09 55° ESE 18:48:39 10° NE
Geosat 3.9 18:38:27 10° NE 18:43:32 88° SE 18:48:35 10° SW
Cosmos 1898 Rocket 4.3 18:44:14 29° ESE 18:44:14 29° ESE 18:48:37 10° NE
Okean 2 Rocket 3.0 18:41:08 16° S 18:44:38 69° E 18:49:03 10° NNE
Okean 1 Rocket 3.6 18:44:16 36° ESE 18:44:45 37° E 18:48:46 10° NNE
Cosmos 405 Rocket 3.5 18:42:30 10° N 18:45:53 32° ENE 18:46:17 31° ENE
OPS 6432 4.2 18:43:41 10° W 18:46:56 74° N 18:47:28 55° ENE
NOSS 3-2 (A) 4.1 18:42:44 10° S 18:47:42 30° ESE 18:53:23 10° ENE
OBJECT-B 3.6 18:45:44 10° SW 18:47:56 17° W 18:50:09 10° NW
H-2A R/B 3.6 18:44:02 10° N 18:47:58 37° NW 18:51:49 10° WSW
Meteor 1-22 Rocket 4.2 18:43:43 10° S 18:49:20 67° ESE 18:55:14 10° NNE
COSMOS 2487 2.9 18:48:06 10° NW 18:51:25 53° WSW 18:52:18 39° SSW
Meteor 1-21 Rocket 4.2 18:46:18 10° NNW 18:51:54 70° ENE 18:54:37 32° SE
Cosmos 1726 2.0 18:52:05 51° SSE 18:52:42 61° E 18:56:20 10° NNE
SPOT 3 Rocket 3.7 18:51:27 22° S 18:54:50 71° WSW 19:00:02 10° NNW
Cosmos 1821 Rocket 4.3 18:51:49 27° SSE 18:55:03 49° E 19:01:10 10° NNE
Sich 1 Rocket 3.7 18:50:41 10° SSW 18:55:14 82° WNW 18:59:47 10° NNE
Cosmos 1766 3.5 18:52:02 10° SSW 18:55:56 69° WNW 18:59:51 10° NNE
SPOT 5 3.1 18:54:59 34° SE 18:57:17 66° ENE 19:02:30 10° NNW
CZ-2C R/B 4.5 18:53:08 10° NNE 18:57:18 33° E 18:57:18 33° E
Cosmos 1733 4.0 18:53:56 10° SSW 18:57:40 52° WNW 19:01:28 10° N
Cosmos 1689 Rocket 2.0 18:55:04 10° NNE 18:57:40 73° NNW 18:57:40 73° NNW
SAR-Lupe-4 3.5 18:55:42 10° NNE 18:59:16 58° ESE 18:59:20 58° ESE
SL-8 Rocket 4.0 18:54:49 10° SSW 19:01:09 86° WNW 19:07:33 10° NNE
Cosmos 1892 Rocket 3.6 18:57:12 10° NNW 19:01:39 68° ENE 19:02:54 45° SE
Cosmos 1048 Rocket 4.1 18:57:22 10° NW 19:02:45 70° NE 19:04:49 38° ESE
CSL-04 DEB 4.3 19:00:21 10° NNE 19:04:21 81° WNW 19:07:52 13° SSW
USA 245 3.7 19:02:59 36° S 19:04:46 81° WSW 19:10:02 10° NNW
Cosmos 1777 Rocket 4.0 18:59:34 10° SW 19:04:50 83° NW 19:10:06 10° NE
Cosmos 1844 Rocket 4.0 19:01:16 10° WNW 19:06:27 35° N 19:11:19 11° ENE
ISS -1.0 19:05:27 10° SW 19:05:32 10° SW 19:05:32 10° SW
Meteor 2-10 4.1 19:02:40 10° SSW 19:08:17 85° ESE 19:13:44 10° NNE
Cosmos 494 Rocket 4.1 19:03:11 10° NW 19:08:30 66° NE 19:10:18 40° ESE
Cosmos 1727 Rocket 4.4 19:02:25 10° NNW 19:08:43 65° W 19:13:43 16° S
Cosmos 2123 Rocket 4.0 19:02:36 10° NNW 19:08:56 72° ENE 19:11:48 34° SSE
Terra 1.9 19:07:38 43° ESE 19:08:57 60° ENE 19:13:40 10° NNW
Meteor 1-11 4.5 19:08:19 10° NNW 19:13:53 55° ENE 19:15:40 39° ESE
SL-08 R/B 4.4 19:11:06 25° S 19:14:49 69° E 19:20:59 10° NNE
Genesis I 3.5 19:11:54 10° WNW 19:15:58 66° N 19:17:05 44° ENE
Spot 2 Rocket 3.5 19:13:59 37° SSE 19:16:03 82° WSW 19:21:10 10° NNW
SAR-Lupe-1 4.0 19:13:03 10° NNE 19:16:41 89° WNW 19:17:15 62° SSW
Cosmos 2151 Rocket 3.6 19:15:42 21° SSW 19:18:43 81° WNW 19:23:15 10° NNE
USA 281 3.3 19:14:40 10° NE 19:21:07 52° ESE 19:25:02 24° S
Timation 2 Rocket 4.1 19:14:36 10° NW 19:21:28 89° SW 19:24:28 38° SE
Cosmos 1328 3.8 19:18:12 10° N 19:22:05 58° ENE 19:22:09 58° ENE
Cosmos 2297 Rocket 2.3 19:21:07 10° NW 19:26:44 66° SW 19:28:41 40° SSE
Cosmos 1825 4.1 19:26:29 10° N 19:29:07 19° NE 19:29:07 19° NE
SPOT 1/Viking Rocket 4.3 19:28:09 24° SSW 19:31:04 48° W 19:36:05 10° NNW
Cosmos 2344 3.9 19:23:38 10° WNW 19:31:31 88° NNE 19:38:16 24° ESE
CZ-4B R/B 4.3 19:29:52 10° N 19:31:52 16° NW 19:33:53 10° W
Cosmos 405 3.8 19:33:30 41° NNE 19:33:30 41° NNE 19:35:55 10° NNE
ASTEX 1 4.3 19:32:02 32° ENE 19:32:33 33° ENE 19:36:58 10° N
Cosmos 1937 Rocket 3.9 19:35:19 42° E 19:35:19 42° E 19:39:33 10° NE
Resurs 01 Rocket 3.3 19:33:41 15° SW 19:36:34 29° W 19:40:27 10° NNW
JB-3 4.3 19:35:19 10° NNE 19:38:49 68° NE 19:38:49 68° NE
ERS-2 2.8 19:36:53 10° NNE 19:39:33 45° NE 19:39:33 45° NE
ERS-1 Rocket 3.0 19:39:17 46° S 19:40:45 73° WSW 19:45:51 10° NNW
DNEPR-1 R/B 4.1 19:37:07 10° WNW 19:41:10 43° SW 19:41:24 42° SSW
Cosmos 1943 Rocket 2.9 19:38:04 10° WSW 19:43:35 53° NNW 19:49:10 10° NE
Cosmos 2366 rocket 4.4 19:38:28 10° SSW 19:44:32 61° WNW 19:50:41 10° NNE
Cosmos 1908 4.1 19:46:14 40° NE 19:46:14 40° NE 19:49:01 10° NNE
Cosmos 1758 3.3 19:45:30 78° SW 19:45:42 83° WNW 19:49:47 10° NNE
ALOS 2 4.0 19:45:21 26° ENE 19:45:49 26° NE 19:49:29 10° N
COBE Rocket 4.1 19:45:06 55° ESE 19:46:00 65° ENE 19:51:04 10° NNW
Cosmos 1408 3.9 19:42:56 10° N 19:45:41 30° NE 19:45:41 30° NE
ARIANE 5 R/B 2.9 19:45:46 50° SSW 19:46:36 61° WSW 19:51:03 10° NNW
Cosmos 1626 Rocket 3.5 19:44:34 10° NNW 19:49:02 71° ENE 19:49:10 71° E
Cosmos 2227 Rocket 2.4 19:43:26 10° NW 19:49:04 63° SW 19:50:29 47° S
CARTOSAT-1 4.4 19:50:38 36° SW 19:51:43 43° W 19:55:53 10° NNW
Cosmos 2278 Rocket 3.6 19:48:57 10° WNW 19:54:12 36° N 19:59:29 10° ENE
Cosmos 2369 Rocket 2.5 19:50:04 10° WSW 19:55:43 65° NW 20:01:20 10° NE
NOSS 3-2 (C) 4.4 19:59:23 32° E 19:59:23 32° E 20:03:42 10° ENE
Cosmos 1269 Rocket 4.2 19:52:53 10° NW 19:58:13 63° NE 19:59:12 53° E
Cosmos 2082 3.6 19:52:42 10° NW 19:58:25 83° SW 19:59:31 59° SSE
Cosmos 990 Rocket 3.8 19:57:48 38° SSW 19:59:52 87° SE 20:05:07 10° NE
Cosmos 1934 Rocket 3.9 19:59:29 50° SSE 20:01:03 70° E 20:07:13 10° NNE
Cosmos 1607 3.9 19:57:14 10° WNW 20:03:41 85° SSW 20:05:22 52° SE
Cosmos 2263 Rocket 2.3 20:00:03 10° NW 20:05:41 69° NE 20:06:56 52° E
SJ 16-02 2.7 20:06:08 10° WSW 20:10:20 39° NW 20:14:32 10° NNE
Okean 1-7 Rocket 3.7 20:06:33 10° NNW 20:10:58 63° W 20:11:09 62° WSW
CENTAUR R/B 2.7 20:09:38 47° S 20:10:59 54° SE 20:18:24 10° ENE
Cosmos 2227 4.4 20:06:23 10° NW 20:12:08 66° NE 20:13:30 50° E
Cosmos 1535 Rocket 4.3 20:14:49 57° SSE 20:16:07 76° E 20:22:21 10° NNE
Lacrosse 4 Rocket 2.6 20:12:16 10° WNW 20:16:08 39° N 20:17:14 32° NE
Cosmos 1697 Rocket 4.4 20:18:36 19° ENE 20:18:36 19° ENE 20:20:48 10° NE
Cosmos 1953 2.8 20:17:46 56° N 20:17:46 56° N 20:21:02 10° NNE
Cosmos 1470 4.3 20:15:48 24° WSW 20:17:27 34° WNW 20:21:08 10° N
Cosmos 1703 4.5 20:13:49 10° NNW 20:17:27 35° W 20:17:37 35° W
Cosmos 1605 Rocket 3.9 20:16:54 57° SE 20:17:40 63° E 20:23:48 10° NNE
Cosmos 1455 Rocket 3.3 20:20:14 64° NNE 20:20:14 64° NNE 20:24:01 10° NNE
Cosmos 1447 Rocket 4.4 20:13:39 10° NNW 20:19:58 86° WSW 20:21:23 57° S
Cosmos 405 Rocket 3.8 20:18:26 10° NNW 20:21:23 40° WNW 20:21:23 40° WNW
Cosmos 2219 3.8 20:17:12 10° NW 20:22:31 42° WSW 20:23:23 39° SW
Okean 1 Rocket 3.9 20:21:26 37° WSW 20:22:37 47° WNW 20:26:51 10° N
Cosmos 1656 Rocket 4.1 20:18:09 10° WSW 20:23:38 60° NW 20:29:04 10° NE
Cosmos 1898 Rocket 3.5 20:24:27 52° SW 20:25:47 83° NW 20:31:07 10° NE
Cosmos 1726 4.3 20:26:30 18° W 20:28:11 24° WNW 20:31:13 10° N
USA 238 DEB 3.6 20:27:40 56° SSE 20:28:14 58° SE 20:35:09 10° ENE
USA 238 3.6 20:27:53 57° SSE 20:28:20 58° SE 20:35:15 10° ENE
Cosmos 1892 3.6 20:24:57 10° NNW 20:27:53 48° N 20:27:53 48° N
Cosmos 1544 Rocket 4.1 20:30:28 51° NE 20:30:28 51° NE 20:33:57 10° NNE
Cosmos 389 Rocket 4.4 20:33:04 26° NNE 20:33:04 26° NNE 20:34:44 10° NNE
Cosmos 724 4.3 20:27:20 10° WNW 20:33:31 85° NNE 20:34:43 60° ESE
CZ-2C R/B 4.1 20:30:12 10° NNE 20:34:47 61° WNW 20:35:32 53° WSW
SPOT 5 4.2 20:34:13 30° SW 20:35:41 36° W 20:40:32 10° NNW
Spot 4 3.8 20:36:43 75° NE 20:36:43 75° NE 20:41:25 10° NNW
NOSS 3-2 (A) 3.4 20:31:38 10° SW 20:37:37 70° SSE 20:44:43 10° ENE
Cosmos 1602 Rocket 3.9 20:34:32 10° NNW 20:38:39 64° WNW 20:38:39 64° WNW
Terra 2.9 20:46:31 33° WSW 20:47:01 34° W 20:51:23 10° NNW
Cosmos 1844 Rocket 3.3 20:45:53 10° NW 20:51:25 52° NNE 20:52:56 41° ENE
Cosmos 1459 Rocket 4.3 20:53:26 49° E 20:53:42 50° E 20:59:45 10° NNE
Cosmos 2058 3.9 20:49:41 10° N 20:52:44 41° NNE 20:52:44 41° NNE
Tsikada Rocket 4.1 20:50:01 10° NNW 20:56:14 59° ENE 20:57:06 54° E
Cosmos 1758 Rocket 4.2 20:59:04 10° NNW 21:02:42 51° WNW 21:02:42 51° WNW
Cosmos 1953 Rocket 4.1 21:00:02 10° NNW 21:03:37 57° N 21:03:37 57° N
Cosmos 1825 3.6 21:01:30 10° NNW 21:03:51 36° NNW 21:03:51 36° NNW
USA 281 3.5 20:59:21 10° NE 21:05:52 66° NW 21:11:50 13° WSW
Cosmos 1125 Rocket 4.3 21:08:25 39° ENE 21:08:25 39° ENE 21:12:07 10° NE
Cosmos 2297 Rocket 3.9 21:05:51 10° WNW 21:09:54 21° WSW 21:10:29 20° WSW
In-Cosmos 22 Rocket 4.5 21:05:44 10° NNW 21:11:17 56° W 21:11:34 55° WSW
ASTEX 1 3.6 21:11:33 63° WNW 21:11:33 63° WNW 21:16:18 10° N
Cosmos 1825 Rocket 4.2 21:07:14 10° NNW 21:10:51 54° NW 21:10:51 54° NW
Cosmos 2100 Rocket 3.9 21:13:04 65° ESE 21:13:19 65° E 21:19:32 10° NNE
ERS-2 4.2 21:10:47 10° N 21:13:46 24° NW 21:14:04 24° WNW
ATLAS 3B R/B 3.9 21:18:21 26° E 21:18:21 26° E 21:22:08 10° ENE
Cosmos 1937 Rocket 3.9 21:15:26 46° W 21:16:36 58° NW 21:21:42 10° NE
Meteor 2-3 Rocket 4.4 21:13:39 10° NNW 21:19:04 45° ENE 21:19:46 43° E
Meteor 2-10 Rocket 3.7 21:21:09 78° E 21:21:09 78° E 21:26:55 10° NNE
ALOS 2 3.2 21:22:45 54° NNW 21:22:45 54° NNW 21:26:14 10° NNW
SL-16 R/B 4.0 21:23:33 17° E 21:27:17 31° NE 21:32:39 10° NNW
Cosmos 1943 Rocket 3.7 21:23:13 10° WNW 21:28:24 36° N 21:33:38 10° ENE
Cosmos 1980 Rocket 3.3 21:32:31 31° E 21:32:31 31° E 21:36:10 10° NE
Cosmos 1300 4.3 21:32:35 33° NNW 21:32:35 33° NNW 21:35:06 10° N
Cosmos 1816 Rocket 4.3 21:25:51 10° NNW 21:32:04 83° WSW 21:32:27 78° SSW
Cosmos 2227 Rocket 4.0 21:28:15 10° WNW 21:32:11 19° WSW 21:32:18 19° WSW
Cosmos 614 Rocket 4.1 21:31:06 10° NW 21:35:39 70° NNW 21:35:39 70° NNW
Cosmos 2251 Rocket 3.6 21:33:21 10° NW 21:38:18 76° NW 21:38:18 76° NW
Cosmos 2278 Rocket 3.4 21:34:09 10° NW 21:39:33 41° NNE 21:44:38 11° E
Cosmos 2369 Rocket 3.6 21:35:23 10° W 21:40:37 37° NNW 21:45:51 10° NE
Cosmos 1656 3.6 21:41:43 77° NE 21:41:43 77° NE 21:46:51 10° NE
Cosmos 1140 Rocket 3.8 21:36:33 10° NW 21:41:41 60° NE 21:41:42 60° NE
Meteor 2-11 Rocket 4.3 21:42:21 79° SSW 21:42:47 87° WNW 21:49:00 10° NNE
Cosmos 2344 4.1 21:37:44 10° WNW 21:45:55 60° SW 21:48:14 50° S
Cosmos 1455 4.0 21:48:18 31° NNE 21:48:18 31° NNE 21:50:24 10° NNE
SL-16 R/B 4.0 21:48:40 19° E 21:48:40 19° E 21:51:32 10° ENE
NOSS 3-2 (C) 3.4 21:46:47 68° SW 21:47:42 82° SSE 21:55:02 10° ENE
Cosmos 2263 Rocket 2.9 21:44:12 10° NW 21:48:36 40° W 21:48:36 40° W
SJ 16-02 4.0 21:46:50 10° WNW 21:50:04 19° NNW 21:53:18 10° NNE
Cosmos 1844 3.7 21:44:24 10° NW 21:50:15 76° NE 21:50:39 72° E
Cosmos 2098 Rocket 4.1 21:45:28 10° N 21:50:15 45° NE 21:50:15 45° NE
Cosmos 2151 4.1 21:49:30 10° N 21:52:33 41° NNE 21:52:33 41° NNE
Lacrosse 4 Rocket 2.9 21:51:13 10° NW 21:53:30 31° NW 21:53:30 31° NW
Cosmos 407 Rocket 3.6 21:53:25 10° NW 21:58:18 72° NNE 21:58:18 72° NNE
Cosmos 1697 Rocket 2.8 22:00:20 65° ENE 22:00:20 65° ENE 22:05:19 10° NE
Cosmos 2360 4.4 22:01:02 61° E 22:01:02 61° E 22:05:57 10° NE
CENTAUR R/B 2.7 21:56:39 22° WSW 22:01:27 89° N 22:09:35 10° ENE
Resurs 1-4 Rocket 4.4 21:59:30 10° NE 22:01:32 12° ENE 22:02:41 11° E
SL-08 R/B 4.4 22:03:45 75° SE 22:04:01 77° E 22:10:21 10° NNE
Cosmos 2228 4.0 22:05:15 46° N 22:05:15 46° N 22:08:28 10° NNE
Cosmos 1606 Rocket 4.4 22:07:41 50° N 22:07:41 50° N 22:11:04 10° NNE
Cosmos 2369 4.0 22:07:58 57° E 22:07:58 57° E 22:12:47 10° NE
Meteor 2-13 Rocket 4.3 22:03:03 10° NNW 22:09:15 89° ENE 22:09:34 82° SSE
Cosmos 1190 Rocket 4.1 22:06:33 10° NW 22:11:33 71° NNE 22:11:33 71° NNE
Cosmos 2058 Rocket 3.9 22:16:00 49° NNE 22:16:00 49° NNE 22:19:23 10° NNE
Cosmos 2173 Rocket 4.0 22:15:15 63° WSW 22:15:50 67° WNW 22:21:59 10° NNE
USA 238 DEB 3.6 22:15:00 27° WSW 22:19:03 87° NNW 22:26:20 10° ENE
USA 238 3.6 22:15:13 28° WSW 22:19:09 87° NNW 22:26:26 10° ENE
Cosmos 2322 Rocket 3.7 22:22:02 24° E 22:22:02 24° E 22:25:45 10° NE
Nimbus 7 Rocket 4.4 22:17:12 10° NNE 22:23:04 65° ESE 22:23:05 65° ESE
Cosmos 2150 Rocket 4.3 22:23:18 65° WNW 22:23:33 66° NW 22:29:00 10° NE
Cosmos 1864 Rocket 4.4 22:23:47 76° SW 22:24:18 84° WNW 22:30:44 10° NNE
Thor Agena Rocket 4.3 22:20:48 10° NNE 22:25:30 44° E 22:25:30 44° E
NOSS 3-2 (A) 3.7 22:22:11 10° W 22:28:33 83° N 22:36:10 10° E
USA 81 4.3 22:29:03 59° WNW 22:29:03 59° WNW 22:34:07 10° N
Cosmos 1802 Rocket 4.0 22:28:38 63° WSW 22:29:15 68° WNW 22:35:26 10° NNE
Cosmos 1725 Rocket 3.9 22:29:39 74° SW 22:30:10 81° WNW 22:36:31 10° NNE
Cosmos 1844 Rocket 3.0 22:30:00 10° NW 22:34:34 55° WNW 22:34:34 55° WNW
ATLAS 5 CENTAUR R/B 3.3 22:26:17 10° W 22:35:30 51° W 22:35:30 51° W
Cosmos 2061 Rocket 3.9 22:37:00 68° WSW 22:37:34 73° WNW 22:43:53 10° NNE
Cosmos-2242 4.5 22:39:00 31° ENE 22:39:00 31° ENE 22:42:01 10° NNE
Cosmos 1459 Rocket 4.4 22:37:56 49° W 22:39:00 54° WNW 22:45:12 10° NNE
MOZ.5/SAFIR/RUBIN 5/SL-8 4.2 22:40:43 62° NNE 22:40:43 62° NNE 22:44:58 10° NNW
Cosmos 1766 Rocket 4.3 22:36:29 10° N 22:40:17 51° NNE 22:40:17 51° NNE
Cosmos 1932 4.3 22:36:14 10° WNW 22:42:02 73° WSW 22:42:02 73° WSW
Cosmos 2016 Rocket 4.2 22:47:14 57° WSW 22:48:03 62° WNW 22:54:20 10° NNE
Cosmos 1125 Rocket 4.0 22:48:41 52° WNW 22:49:10 54° NW 22:54:23 10° NE
CZ-2D R/B 3.8 22:45:58 10° NE 22:50:12 23° E 22:51:13 22° ESE
Cosmos 2360 Rocket 3.6 22:52:17 26° ESE 22:52:17 26° ESE 22:56:45 10° NE
Cosmos 2026 Rocket 4.5 22:50:53 10° NNW 22:57:00 55° ENE 22:59:06 38° ESE
Cosmos 2333 Rocket 4.1 22:56:52 17° ESE 22:57:31 17° E 23:01:04 10° ENE
Cosmos 2278 3.6 22:59:36 81° ESE 22:59:36 81° ESE 23:05:14 10° NE
PSLV R/B 4.3 22:56:17 10° NNE 22:59:26 49° NNE 22:59:26 49° NNE
Cosmos 1464 Rocket 4.1 22:59:58 55° SE 23:00:44 59° E 23:06:45 10° NNE
ADEOS Rocket 3.6 22:58:54 44° SE 23:01:42 80° ENE 23:09:33 10° NNW
Meteor 2-3 Rocket 4.0 22:57:00 10° NNW 23:02:02 53° WNW 23:02:02 53° WNW
ATLAS 3B R/B 2.5 23:05:36 67° S 23:06:07 69° SSE 23:13:06 10° ENE
Cosmos 2219 Rocket 4.1 23:08:07 17° ESE 23:09:00 17° E 23:12:32 10° ENE
SL-16 R/B 2.6 23:08:39 53° SE 23:10:15 77° ENE 23:16:32 10° NNW
Meteor 2-1 Rocket 4.4 23:09:56 61° W 23:10:22 63° WNW 23:16:08 10° NNE
Cosmos 676 Rocket 4.1 23:05:13 10° NW 23:09:39 63° NW 23:09:39 63° NW
Cosmos 371 Rocket 3.5 23:11:58 70° NE 23:11:58 70° NE 23:16:19 10° NE
Cosmos 1943 Rocket 3.3 23:08:00 10° NW 23:13:23 42° NNE 23:18:47 10° E
Cosmos 1980 Rocket 2.1 23:14:17 73° W 23:14:42 78° NW 23:20:26 10° NE
Cosmos 2221 4.3 23:14:38 25° E 23:14:52 25° E 23:18:26 10° NNE
Nadezhda 4 Rocket 3.8 23:12:57 10° NNW 23:19:10 77° W 23:19:42 72° SSW
Cosmos 2233 Rocket 4.1 23:18:20 57° WSW 23:19:11 62° WNW 23:25:24 10° NNE
Cosmos 1072 Rocket 4.4 23:19:30 66° SSE 23:20:21 78° E 23:26:38 10° NNE
Meteor 2-19 Rocket 4.3 23:15:40 10° NNW 23:21:52 79° W 23:22:27 71° SSW
Cosmos 1455 4.3 23:23:10 21° NW 23:23:10 21° NW 23:25:39 10° N
Cosmos 1862 4.4 23:20:07 10° NNW 23:22:53 42° NNW 23:22:53 42° NNW
Cosmos 2278 Rocket 2.2 23:18:36 10° NW 23:24:21 79° NE 23:26:21 42° ESE
Cosmos 2369 Rocket 3.5 23:20:38 10° NW 23:25:55 38° NNE 23:31:08 10° E
Okean 3 Rocket 4.2 23:22:10 10° NNW 23:25:27 49° NNW 23:25:27 49° NNW
SJ 16-02 4.2 23:27:16 10° NNW 23:30:16 17° N 23:33:15 10° NE
SL-16 R/B 2.2 23:30:32 64° SE 23:30:44 64° SE 23:36:22 10° NE
Cosmos 2098 Rocket 4.3 23:26:47 10° NNW 23:30:33 35° WNW 23:30:33 35° WNW
Cosmos 2263 Rocket 4.5 23:29:52 10° WNW 23:30:16 11° WNW 23:30:16 11° WNW
Helios 1A 4.0 23:35:47 40° NW 23:35:47 40° NW 23:38:36 10° NNW
Cosmos 1743 Rocket 4.1 23:30:12 10° N 23:34:35 55° ENE 23:34:46 54° E
NOSS 3-2 (C) 3.7 23:34:11 21° W 23:38:51 83° N 23:46:37 10° E
Cosmos 304 Rocket 3.7 23:39:12 80° NE 23:39:12 80° NE 23:43:45 10° NE
Cosmos 220 Rocket 4.5 23:39:35 57° ENE 23:39:35 57° ENE 23:43:25 10° NE
Cosmos 1891 Rocket 4.3 23:40:29 65° SSW 23:41:28 82° WNW 23:47:39 10° NNE
Resurs 1-4 Rocket 2.8 23:37:41 10° NNE 23:42:46 45° E 23:43:45 40° SE
Cosmos 1697 Rocket 3.4 23:42:02 35° WNW 23:43:59 49° NNW 23:49:31 10° NE
USA 234 4.0 23:39:46 10° E 23:45:37 33° SE 23:45:48 33° SSE
Cosmos 2237 4.4 23:45:46 54° SE 23:46:18 56° ESE 23:51:55 10° NE
Helios 1B rocket 4.2 23:43:24 10° NE 23:46:45 23° E 23:47:23 22° ESE
Aureole 3 3.7 23:51:17 78° ENE 23:51:17 78° ENE 23:55:09 10° NNE
Cosmos 1437 Rocket 3.6 23:51:53 49° NNW 23:51:53 49° NNW 23:55:15 10° NNE
Cosmos 2369 4.2 23:49:54 40° W 23:51:34 53° NNW 23:57:10 10° NE
